Location: Arlington
(40.6323°N, 74.1651°W)
Time: 01:11:10
(UTC+00:00)

Cosmos 724 - Pass Details

Date: 22 November 2019
Orbit: 861 x 934 km, 65.6° (Epoch: 12 December)

Event Time Altitude Azimuth Distance (km) Brightness Sun altitude
Rises 22:09:00 0° 329° (NNW) 3,474 7.5 -6.9°
Reaches altitude 10° 22:11:31 10° 330° (NNW) 2,524 6.8 -7.4°
Maximum altitude 22:17:22 83° 59° (ENE) 875 4.2 -8.4°
Drops below altitude 10° 22:23:07 10° 147° (SSE) 2,490 6.5 -9.4°
Sets 22:25:35 0° 148° (SSE) 3,423 7.2 -9.9°
